Regional Weather Roundup
Issued by NWS

Home | Current Version | Previous Version | Graphics & Text | Print | Product List | Glossary On
Versions: 1 2 3 4 5 6 7 8 9 10 11 12 13 14 15 16 17 18 19 20 21 22 23 24 25 26 27 28 29 30 31 32 33 34 35 36 37 38 39 40 41 42 43 44 45 46 47 48 49 50
833
ASUS43 KIND 261509
RWRIN

WEATHER ROUNDUP FOR INDIANA
NATIONAL WEATHER SERVICE INDIANAPOLIS IN
1100 AM EDT SUN MAR 26 2017

NOTE: "FAIR" INDICATES FEW OR NO CLOUDS BELOW 12,000 FEET WITH NO
SIGNIFICANT WEATHER AND/OR OBSTRUCTIONS TO VISIBILITY.

* - STATION DOES NOT REPORT WEATHER SUCH AS PRECIPITATION OR FOG.

+ - STATION NOT QUALITY CONTROLLED BY THE NATIONAL WEATHER SERVICE.
    USE DATA WITH CAUTION...ESPECIALLY DEWPOINT AND RELATIVE
    HUMIDITY OBSERVATIONS.

INZ001>003-010>013-019-020-261600-
NORTHWEST INDIANA

CITY           SKY/WX    TMP DP  RH WIND       PRES   REMARKS
GARY /AIRPORT/ PTSUNNY   57  55  94 SE9       29.86F
KNOX *+        CLOUDY    54  48  82 S9        29.88S
LA PORTE +     RAIN      53  52  99 SE9       29.89S
MICHIGAN CITY+ RAIN      52  52 100 SE3       29.88S
MONTICELLO +   RAIN      57  55  92 S7        29.88S
RENSSELAER +   CLOUDY    57  55  94 S13       29.87S
VALPARAISO     LGT RAIN  55  54  96 SE6       29.88S FOG

$$

LMZ046-743>745-261600-
SOUTHERN LAKE MICHIGAN

STATION/POSITION TIME  TEMP    WIND        PRES    WAVE
                       AIR SEA DIR/SP/G            HT
                 (UTC) (F)     (DEG/KT/KT) (MB)    (FT)
BURNS HARBOR     1440   55     170/  8/ 12 1011.9F
MICHIGAN CITY    1440   52     140/  8/  9   N/A

$$

INZ004-005-014>016-021>024-261600-
NORTH CENTRAL INDIANA

CITY           SKY/WX    TMP DP  RH WIND       PRES   REMARKS
ELKHART        DRIZZLE   48  46  93 E7        29.91S
GOSHEN         LGT RAIN  47  44  90 SE14      29.91S FOG
LOGANSPORT +   CLOUDY    55  55 100 S9        29.91S
PERU/GRISSOM   LGT RAIN  57  57 100 S12       29.89S
ROCHESTER +    CLOUDY    57  57 100 SE7       29.90S
SOUTH BEND     LGT RAIN  49 N/A N/A SE9       29.90F
WARSAW +       LGT RAIN  46  46 100 SE6       29.92S

$$

INZ006>009-017-018-025>027-261600-
NORTHEAST INDIANA

CITY           SKY/WX    TMP DP  RH WIND       PRES   REMARKS
ANGOLA *+      CLOUDY    43  43 100 SE9       29.94F
AUBURN +       RAIN      43  39  87 E5        29.96S
FORT WAYNE     LGT RAIN  47  44  90 E10       29.95F FOG
HUNTINGTON +   CLOUDY    47  46  96 E3        29.93F FOG
KENDALLVILLE + RAIN      43  43 100 SE6       29.94F

$$

INZ028-029-035-036-043>045-051>053-261600-
WEST CENTRAL INDIANA

CITY           SKY/WX    TMP DP  RH WIND       PRES   REMARKS
CRAWFORDSVL +  CLOUDY    56  56 100 S13G18    29.91S
GREENCASTLE +  CLOUDY    55  54  94 S8        29.92S
LAFAYETTE      LGT RAIN  57  56  96 S10       29.89S
TERRE HAUTE    CLOUDY    58  54  86 S9        29.91R

$$

INZ030>032-037>040-046>048-054>057-064-065-261600-
CENTRAL INDIANA

CITY           SKY/WX    TMP DP  RH WIND       PRES   REMARKS
CP ATTERBURY + CLOUDY    59  54  82 S9G16     29.95S
COLUMBUS       CLOUDY    57  57 100 S12       29.95F
FISHERS *+     CLOUDY    57  57 100 S12       29.93R
FRANKFORT +    LGT RAIN  59  58  94 S8        29.92S
GREENWOOD *+   CLOUDY    60  56  87 S13       29.95R
INDIANAPOLIS   LGT RAIN  58  55  90 S12       29.92S
-EAGLE CREEK   LGT RAIN  58  55  90 S10       29.92R
KOKOMO +       CLOUDY    57  55  93 S12       29.92S
MARION +       CLOUDY    56  55  94 S12       29.93S
MT COMFORT *+  CLOUDY    59  55  88 S15G21    29.93S
SHELBYVILLE    CLOUDY    61  55  81 S14       29.94S
ZIONSVILLE +   CLOUDY    57  55  92 S14       29.92S

$$

INZ033-034-041-042-049-050-058-059-261600-
EAST CENTRAL INDIANA

CITY           SKY/WX    TMP DP  RH WIND       PRES   REMARKS
MUNCIE         CLOUDY    60  54  80 S14       29.93F
RICHMOND +     RAIN      55  54  94 S15       29.98S

$$

INZ060-061-067>069-081>083-085>088-261600-
SOUTHWEST INDIANA

CITY           SKY/WX    TMP DP  RH WIND       PRES   REMARKS
EVANSVILLE     CLOUDY    61  55  81 S15       29.95R
HUNTINGBURG *+ CLOUDY    59  56  89 S9        29.95S
WASHINGTON +   CLOUDY    59  57  91 MISG      29.93S

$$

INZ062-063-066-070>080-084-089>092-261600-
SOUTH CENTRAL AND SOUTHEAST INDIANA

CITY           SKY/WX    TMP DP  RH WIND       PRES   REMARKS
BLOOMINGTON    LGT RAIN  57  54  89 S8        29.94R
MADISON *+     CLOUDY    55  55 100 SE6       30.00R
NORTH VERNON + LGT RAIN N/A N/A N/A S7        29.97S

$$





USA.gov is the U.S. government's official web portal to all federal, state and local government web resources and services.